FW1932 Weather Reports


time (UTC)temp
C
wind
direction
speed
KPH
gust
KPH
rain 1hr
cm
rain 24hr
cm
rain mn
cm
humidity
%
barometer
mb
20260905011500 21 200 0.0 0.0 0.00 0.00 0.00 69 1020.8
20260905010059 21 200 0.0 1.6 0.00 0.00 0.00 68 1020.5
20260905004558 21 225 0.0 1.6 0.00 0.00 0.00 69 1020.7
20260905003058 21 224 0.0 1.6 0.00 0.00 0.00 69 1020.5
20260905001559 21 224 0.0 1.6 0.00 0.00 0.00 69 1020.2
20260905000053 22 224 0.0 0.0 0.00 0.00 0.00 68 1020.3
20260904234553 22 224 0.0 1.6 0.00 0.00 0.00 67 1019.9
20260904233051 22 224 0.0 1.6 0.00 0.00 0.00 66 1019.5
20260904231544 23 115 0.0 0.0 0.00 0.00 0.00 63 1019.5
20260904230041 23 115 0.0 1.6 0.00 0.00 0.00 62 1019.4
20260904224537 24 193 0.0 1.6 0.00 0.00 0.00 60 1019.3
20260904223046 25 252 0.0 1.6 0.00 0.00 0.00 59 1019.1
20260904221544 25 265 0.0 6.4 0.00 0.00 0.00 58 1019.0
20260904220029 25 250 0.0 3.2 0.00 0.00 0.00 57 1018.9
20260904214528 26 250 0.0 8.0 0.00 0.00 0.00 56 1018.8
20260904213028 26 253 0.0 6.4 0.00 0.00 0.00 55 1018.6
20260904211534 26 233 0.0 3.2 0.00 0.00 0.00 56 1018.6
20260904210026 26 248 0.0 1.6 0.00 0.00 0.00 56 1018.5
20260904204528 26 255 0.0 1.6 0.00 0.00 0.00 55 1018.5
20260904203031 26 248 1.6 6.4 0.00 0.00 0.00 54 1018.3
20260904201530 27 250 0.0 3.2 0.00 0.00 0.00 54 1018.4
20260904200134 27 245 0.0 4.8 0.00 0.00 0.00 53 1018.2
20260904194557 27 259 1.6 3.2 0.00 0.00 0.00 53 1018.1
20260904193035 27 262 0.0 1.6 0.00 0.00 0.00 53 1018.1
20260904191523 27 226 0.0 1.6 0.00 0.00 0.00 53 1018.0
20260904190022 27 207 0.0 1.6 0.00 0.00 0.00 54 1017.9
20260904184522 27 212 0.0 1.6 0.00 0.00 0.00 53 1017.8
20260904183021 28 212 0.0 1.6 0.00 0.00 0.00 52 1017.7
20260904181521 28 252 0.0 1.6 0.00 0.00 0.00 51 1017.6
20260904180020 29 252 0.0 3.2 0.00 0.00 0.00 51 1017.6
20260904174519 29 254 1.6 4.8 0.00 0.00 0.00 50 1017.5
20260904173027 30 238 0.0 3.2 0.00 0.00 0.00 49 1017.4
20260904171525 30 226 3.2 8.0 0.00 0.00 0.00 47 1017.4
20260904170017 30 173 0.0 3.2 0.00 0.00 0.00 47 1017.4
20260904164518 31 190 0.0 14.5 0.00 0.00 0.00 46 1017.3
20260904163017 31 214 3.2 11.3 0.00 0.00 0.00 44 1017.4
20260904161516 32 85 0.0 4.8 0.00 0.00 0.00 44 1017.4
20260904160017 33 245 0.0 4.8 0.00 0.00 0.00 42 1017.3
20260904154513 34 257 1.6 6.4 0.00 0.00 0.00 40 1017.4
20260904153021 33 79 0.0 6.4 0.00 0.00 0.00 41 1017.5
20260904151514 33 70 0.0 6.4 0.00 0.00 0.00 41 1017.5
20260904150009 33 222 4.8 14.5 0.00 0.00 0.00 41 1017.5
20260904144506 33 250 1.6 8.0 0.00 0.00 0.00 41 1017.5
20260904143006 33 252 4.8 12.9 0.00 0.00 0.00 41 1017.6
20260904141503 33 252 0.0 6.4 0.00 0.00 0.00 43 1017.8
20260904140108 32 241 6.4 14.5 0.00 0.00 0.00 43 1017.9
20260904134607 32 193 3.2 12.9 0.00 0.00 0.00 43 1018.1
20260904133108 32 237 3.2 12.9 0.00 0.00 0.00 44 1018.1
20260904131607 32 231 4.8 12.9 0.00 0.00 0.00 44 1018.4
20260904130051 31 242 1.6 19.3 0.00 0.00 0.00 45 1018.6
20260904124548 32 223 0.0 6.4 0.00 0.00 0.00 46 1018.8
20260904123046 32 105 1.6 11.3 0.00 0.00 0.00 45 1019.0
20260904121544 31 226 3.2 9.7 0.00 0.00 0.00 45 1019.2
20260904120045 31 217 3.2 11.3 0.00 0.00 0.00 44 1019.4
20260904114540 31 227 0.0 11.3 0.00 0.00 0.00 45 1019.5
20260904113039 31 190 1.6 12.9 0.00 0.00 0.00 46 1019.5
20260904111534 30 239 3.2 16.1 0.00 0.00 0.00 47 1019.8
20260904110033 30 263 4.8 12.9 0.00 0.00 0.00 45 1020.0
20260904104530 30 245 4.8 11.3 0.00 0.00 0.00 44 1020.2
20260904103027 30 254 3.2 9.7 0.00 0.00 0.00 44 1020.3
20260904101526 29 233 3.2 12.9 0.00 0.00 0.00 47 1020.6
20260904100020 28 231 3.2 9.7 0.00 0.00 0.00 48 1020.8
20260904094516 27 253 3.2 9.7 0.00 0.00 0.00 50 1021.1
20260904093013 27 232 3.2 9.7 0.00 0.00 0.00 50 1021.3
20260904091512 27 250 3.2 11.3 0.00 0.00 0.00 50 1021.3
20260904090009 26 266 1.6 11.3 0.00 0.00 0.00 51 1021.3
20260904084507 26 252 4.8 11.3 0.00 0.00 0.00 52 1021.3
20260904083005 26 236 1.6 14.5 0.00 0.00 0.00 55 1021.4
20260904081601 25 217 1.6 11.3 0.00 0.00 0.00 56 1021.4
20260904080059 23 223 1.6 12.9 0.00 0.00 0.00 59 1021.4
20260904074553 23 234 1.6 8.0 0.00 0.00 0.00 63 1021.5
20260904073052 22 244 3.2 9.7 0.00 0.00 0.00 65 1021.5
20260904071546 21 229 0.0 6.4 0.00 0.00 0.00 69 1021.6
20260904070044 20 214 0.0 3.2 0.00 0.00 0.00 72 1021.8
20260904064545 18 242 0.0 0.0 0.00 0.00 0.00 76 1022.1
20260904063043 17 242 0.0 0.0 0.00 0.00 0.00 77 1022.1
20260904061548 17 242 0.0 0.0 0.00 0.00 0.00 77 1022.2
20260904060042 17 242 0.0 0.0 0.00 0.00 0.00 77 1022.1
20260904054542 17 242 0.0 0.0 0.00 0.00 0.00 78 1022.2
20260904053042 17 242 0.0 0.0 0.00 0.00 0.00 77 1022.2
20260904051540 17 242 0.0 0.0 0.00 0.00 0.00 77 1022.1
20260904050045 17 242 0.0 0.0 0.00 0.00 0.00 77 1022.1
20260904044549 17 242 0.0 0.0 0.00 0.00 0.00 76 1022.2
20260904043041 17 242 0.0 0.0 0.00 0.00 0.00 77 1022.2
20260904041539 17 242 0.0 0.0 0.00 0.00 0.00 77 1022.3
20260904040034 17 242 0.0 0.0 0.00 0.00 0.00 77 1022.6
20260904034531 17 242 0.0 0.0 0.00 0.00 0.00 76 1022.9
20260904033030 17 242 0.0 0.0 0.00 0.00 0.00 76 1022.9
20260904031527 17 242 0.0 0.0 0.00 0.00 0.00 75 1023.0
20260904030027 17 242 0.0 0.0 0.00 0.00 0.00 75 1023.0
20260904024523 18 242 0.0 1.6 0.00 0.00 0.00 74 1023.1
20260904023021 18 242 0.0 1.6 0.00 0.00 0.00 72 1023.2
20260904021521 18 238 0.0 4.8 0.00 0.00 0.00 69 1023.2
20260904020028 18 252 0.0 4.8 0.00 0.00 0.00 73 1023.3
20260904014518 18 245 0.0 1.6 0.00 0.00 0.00 74 1023.5
20260904013017 18 243 0.0 3.2 0.00 0.00 0.00 74 1023.5